User: anonymous   Login
Location: Unspecified
(0.0000°N, 0.0000°E)
Time: 09:54:03
(UTC+00:00)
Language:

TerraSAR-X - Orbit

View from above orbital plane
View from above orbital plane
View from above satellite
View from above satellite

Ground track
Ground track

The orbit data is extracted from the following two-line orbital elements,

1 31698U 07026A   20051.85987593 -.00000067  00000-0  00000+0 0  9997
2 31698  97.4453  60.5431 0002437  94.3979  25.1641 15.19168974703445
Epoch (UTC): 20 February 2020 20:38:13
Eccentricity: 0.0002437
inclination: 97.4453°
perigee height: 506 km
apogee height: 510 km
right ascension of ascending node: 60.5431°
argument of perigee: 94.3979°
revolutions per day: 15.19168974
mean anomaly at epoch: 25.1641°
orbit number at epoch: 70344

The dashed part of the orbit path shows where the satellite is in the earth's shadow,  

DLR